User: anonymous   Login
Location: Mount Wilson Observatory
(34.2257°N, 118.0571°W)
Time: 16:14:17
(UTC-08:00)
Language:

ATLAS 3B CENTAUR R/B - Orbit

View from above orbital plane
View from above orbital plane
View from above satellite
View from above satellite

Ground track
Ground track

The orbit data is extracted from the following two-line orbital elements,

1 28118U 03057B   16337.15536426  .00046954  00000-0  75528-3 0  9995
2 28118  28.1186 280.7090 3167613 144.5075 241.4456  9.13630112271458
Epoch (UTC): 02 December 2016 03:43:43
Eccentricity: 0.3167613
inclination: 28.1186°
perigee height: 225 km
apogee height: 6349 km
right ascension of ascending node: 280.7090°
argument of perigee: 144.5075°
revolutions per day: 9.13630112
mean anomaly at epoch: 241.4456°
orbit number at epoch: 27145

The dashed part of the orbit path shows where the satellite is in the earth's shadow,  

DLR